This demonstration page uses our WeatherBlox Daily Observations layout. Learn more.

Left ArrowRight Arrow

39.92423, -83.80882

Hourly Observations for July 7, 2022

Temp ( °F °C ) Dew Point ( °F °C ) Humidity (%) Winds ( mph kmh ) Pressure ( in mb ) Visibility ( mi km ) Precip ( " mm )
12:12 am 00:12 Cloudy 72 22 N/A N/A NNE 7 11 29.96 1015 10 16 0.00 0.00
12:56 am 00:56 Cloudy 72 22 N/A N/A NE 7 11 29.99 1016 10 16 0.00 0.00
1:11 am 01:11 Cloudy 72 22 N/A N/A NE 8 13 29.96 1015 10 16 0.00 0.00
1:56 am 01:56 Cloudy 70 21 N/A N/A NE 8 13 29.97 1015 10 16 0.00 0.00
2:56 am 02:56 Mostly Cloudy 68 20 N/A N/A NE 6 9 29.98 1015 10 16 0.00 0.00
3:56 am 03:56 Cloudy 68 20 N/A N/A NE 7 11 29.99 1016 10 16 0.00 0.00
4:56 am 04:56 Clear 66 19 N/A N/A NE 7 11 29.99 1015 10 16 0.00 0.00
5:56 am 05:56 Clear 66 19 N/A N/A NE 5 7 30.01 1016 10 16 0.00 0.00
6:56 am 06:56 Sunny 64 18 N/A N/A NE 5 7 30.02 1017 9 14 0.00 0.00
7:56 am 07:56 Sunny 69 20.6 69 20.6 100 100 ENE 5 7 30.03 1017 10 16 0.00 0.00
8:56 am 08:56 Sunny 72 22.2 69 20.6 91 91 ENE 7 11 30.04 1017 10 16 0.00 0.00
9:56 am 09:56 Sunny 74 23.3 67 19.4 79 79 ENE 5 7 30.02 1017 10 16 0.00 0.00
10:56 am 10:56 Sunny 77 25 66 18.9 69 69 NE 8 13 30.03 1017 10 16 0.00 0.00
11:56 am 11:56 Sunny 80 26.7 67 19.4 64 64 ENE 8 13 30.04 1017 10 16 0.00 0.00
12:56 pm 12:56 Sunny 81 27.2 69 20.6 67 67 ENE 8 13 30.03 1017 10 16 0.00 0.00
1:56 pm 13:56 Sunny 82 27.8 68 20 63 63 ESE 5 7 30.03 1017 7 11 0.00 0.00
2:56 pm 14:56 Sunny 82 27.8 66 18.9 58 58 ENE 5 7 30.02 1017 10 16 0.00 0.00
3:56 pm 15:56 Sunny 82 27.8 67 19.4 60 60 SSE 5 7 30.02 1017 10 16 0.00 0.00
4:56 pm 16:56 Sunny 84 28.9 66 18.9 55 55 E 3 6 30.01 1016 10 16 0.00 0.00
5:56 pm 17:56 Sunny 83 28.3 68 20 61 61 Calm 30.00 1016 10 16 0.00 0.00
6:56 pm 18:56 Sunny 80 26.7 69 20.6 69 69 Calm 29.99 1016 10 16 0.00 0.00
7:56 pm 19:56 Partly Cloudy 79 26.1 70 21.1 74 74 ENE 7 11 29.98 1015 10 16 0.00 0.00
8:56 pm 20:56 Sunny 74 23.3 72 22.2 94 94 E 7 11 29.98 1015 10 16 0.00 0.00
9:56 pm 21:56 Clear 73 22.8 73 22.8 100 100 E 6 9 30.00 1016 10 16 0.01 0.25
10:56 pm 22:56 Clear 72 22.2 72 22.2 100 100 E 5 7 30.02 1017 10 16 0.00 0.00
11:56 pm 23:56 Clear 72 22 N/A N/A E 5 7 30.01 1016 10 16 0.00 0.00

Powered by AerisWeather